www.pogodaiklimat.ru
ПОГОДА в Остере

Архив погоды в Остере (Черниговская область, Украина)

Время
(UTC), дата
03 11.06
06 11.06
09 11.06
12 11.06
15 11.06
18 11.06
21 11.06
00 12.06
03 12.06
06 12.06
09 12.06
12 12.06
15 12.06
21 12.06
00 13.06
03 13.06
06 13.06
09 13.06
12 13.06
15 13.06
18 13.06
21 13.06
03 14.06
06 14.06
09 14.06
12 14.06
15 14.06
18 14.06
21 14.06
00 15.06
03 15.06
06 15.06
09 15.06
12 15.06
15 15.06
18 15.06
21 15.06
00 16.06
03 16.06
06 16.06
09 16.06
12 16.06
15 16.06
18 16.06
21 16.06
00 17.06
03 17.06
06 17.06
09 17.06
12 17.06
15 17.06
18 17.06
21 17.06
00 18.06
Ветер
(напр.,м/с)
Видим. Явления Облачность Т
(С)
Тd
(С)
f
(%)
Тe
(С)
Тes
(С)
Комфортность P
(гПа)
Po
(гПа)
Тmin
(С)
Tmax
(С)
R
(мм)
R24
(мм)
S
(см)
ЮВ 1 н/о дымка 9 баллов +17.8 +17.3 97 +19 +19 1004.1 992.0
ЮВ 2 н/о в посл. час ливневой дождь 9 баллов +19.6 +18.8 95 +23 +23 комфорт 1004.0 992.0
ЮВ 4 н/о 9 баллов +22.3 +19.5 84 +28 +28 душно 1005.2 993.3
Ю 6 н/о 5 баллов +27.1 +18.7 60 +32 +32 очень душно 1005.0 993.3
СЗ 2 н/о гроза без осадков 9 баллов +23.8 +19.7 78 +29 +29 душно 1005.1 993.3
В 2 н/о 9 баллов +22.9 +20.2 85 +30 +30 очень душно 1006.6 994.7
В 2 н/о дымка 10 баллов +20.6 +19.3 92 +25 +25 комфорт 1006.7 994.7
В 1 н/о слаб. ливневой дождь, в посл. час гроза 10 баллов +19.8 +18.5 92 +24 +24 комфорт 1005.3 993.3
В 1 н/о слаб. ливневой дождь, в посл. час гроза 10 баллов +17.6 +17.0 96 +19 +19 1004.1 992.0
штиль 0 н/о дымка 10 баллов +19.5 +18.3 93 +22 +22 комфорт 1004.0 992.0
СВ 2 н/о в посл. час ливневой дождь 9 баллов +20.1 +19.4 96 +24 +24 комфорт 1004.0 992.0
СЗ 5 н/о слаб. ливневой дождь 10 баллов +16.5 +15.9 96 +16 +16 1004.2 992.0
СЗ 8 н/о слаб. ливневой дождь 10 баллов +15.6 +14.6 94 +14 +14 1006.9 994.7
З 3 н/о ясно +14.9 +13.1 89 +14 +14 1011.0 998.7
З 3 н/о ясно +14.2 +11.7 85 +13 +13 1012.4 1000.0
З 2 н/о ясно +13.5 +11.0 85 +13 +13 1012.4 1000.0
СЗ 3 н/о ясно +17.5 +12.0 70 +18 +18 1013.5 1001.3
СЗ 4 н/о 8 баллов +20.7 +11.1 54 +23 +23 комфорт 1013.4 1001.3
С 3 н/о 8 баллов +22.7 +11.7 50 +25 +25 комфорт 1013.3 1001.3
СЗ 2 н/о 8 баллов +23.1 +11.5 48 +25 +25 комфорт 1013.3 1001.3
С 2 н/о 4 балла +20.4 +12.9 62 +23 +23 комфорт 1013.4 1001.3
штиль 0 н/о ясно +15.4 +12.9 85 +15 +15 1012.3 1000.0
штиль 0 н/о дымка 8 баллов +14.5 +13.2 92 +14 +14 1012.3 1000.0
СВ 1 н/о 10 баллов +17.9 +14.2 79 +19 +19 1012.2 1000.0
штиль 0 н/о 10 баллов +20.2 +14.1 68 +22 +22 комфорт 1012.1 1000.0
В 2 н/о 9 баллов +21.6 +14.0 62 +24 +24 комфорт 1010.7 998.7
СЗ 1 н/о в посл. час ливневой дождь 9 баллов +21 +16.6 76 +26 +26 душно 1010.7 998.7
штиль 0 н/о 9 баллов +19.3 +15.4 78 +21 +21 комфорт 1010.8 998.7
СЗ 1 н/о слаб. ливневой дождь 10 баллов +17.7 +15.9 89 +19 +19 1010.9 998.7
штиль 0 н/о дымка 10 баллов +17 +16.2 95 +17 +17 1010.9 998.7
штиль 0 н/о в посл. час ливневой дождь 10 баллов +16.7 +16.2 97 +17 +17 1010.9 998.7
СЗ 2 н/о в посл. час ливневой дождь 10 баллов +17.2 +16.6 96 +18 +18 1010.9 998.7
СЗ 3 н/о 9 баллов +21.1 +17.3 79 +25 +25 комфорт 1010.7 998.7
СЗ 3 н/о 9 баллов +22.3 +18.5 79 +28 +28 душно 1009.3 997.3
СЗ 2 н/о слаб. ливневой дождь, в посл. час гроза 10 баллов +19 +17.1 89 +21 +21 комфорт 1009.4 997.3
СЗ 1 н/о дымка 8 баллов +18.4 +17.4 94 +20 +20 1009.4 997.3
С 2 н/о дымка 8 баллов +16.7 +16.2 97 +17 +17 1010.9 998.7
штиль 0 н/о дымка 9 баллов +16.3 +15.8 97 +16 +16 1009.5 997.3
С 1 н/о дымка 10 баллов +16.6 +16.0 96 +17 +17 1009.5 997.3
С 2 н/о дымка 10 баллов +17.6 +16.8 95 +18 +18 1009.5 997.3
С 1 н/о 9 баллов +21.3 +17.9 81 +25 +25 комфорт 1009.3 997.3
СВ 3 н/о 9 баллов +24 +17.5 67 +28 +28 душно 1007.9 996.0
С 2 н/о 10 баллов +23 +17.7 72 +28 +28 душно 1007.9 996.0
СЗ 2 н/о 10 баллов +20.1 +17.1 83 +24 +24 комфорт 1008.0 996.0
З 1 н/о 10 баллов +18.1 +16.3 89 +19 +19 1006.8 994.7
З 1 н/о дымка 10 баллов +18.3 +17.0 92 +20 +20 1006.8 994.7
З 2 н/о слаб. ливневой дождь 10 баллов +17.7 +17.2 97 +18 +18 1006.8 994.7
З 3 н/о слаб. ливневой дождь 10 баллов +18.1 +17.5 96 +18 +18 1006.8 994.7
СЗ 3 н/о в посл. час ливневой дождь 9 баллов +20.8 +17.6 82 +25 +25 комфорт 1008.0 996.0
З 3 н/о 9 баллов +24.1 +16.9 64 +28 +28 душно 1007.9 996.0
С 3 н/о 4 балла +24.3 +16.8 63 +28 +28 душно 1009.2 997.3
Ю 2 н/о в посл. час ливневой дождь 8 баллов +19.5 +17.8 90 +22 +22 комфорт 1009.4 997.3
штиль 0 н/о дымка ясно +17.9 +16.8 93 +18 +18 1010.9 998.7
З 1 н/о дымка ясно +17.7 +16.0 90 +19 +19 1012.2 1000.0
Местоположение метеостанции Остер (Черниговская область, Украина): широта 50.95 долгота 30.88 высота над уровнем моря 104 м.
В архиве по умолчанию представлена погода в Остере за последнюю неделю. Архивные данные за месяц целиком и за предыдущие месяцы, начиная с января 2011 года, Вы можете получить, выбрав интересующий диапазон дат из раскрывающегося списка и нажав кнопку "Найти!".
*Определитесь, кто Вы:
Внимание! Время в таблицах - всемирное. Для получения местного времени необходимо прибавить поправку, которая равна 2 ч.
Некоторые строки с данными для отдельных станций могут быть выделены курсивом. Это означает, что фактические данные отсутствуют по различным причинам, а приведенные значения являются расчетными модельными данными для данного пункта наблюдений.
Смотрите также архив погоды в соседних городах и на ближайших метеорологических станциях:
Партнеры нашего сайта:      
Пояснения к столбцам:
  • Ветер - указаны скорость ветра в м/с - средняя за 10 мин, порывы в срок и между сроками (в фигурных скобках) и направление, откуда дует ветер: С - северный,
  • СВ - северо-восточный, В - восточный, ЮВ - юго-восточный, Ю - южный, ЮЗ - юго-западный, З - западный, СЗ - северо-западный.
  • Видимость - горизонтальная дальность видимости в метрах или километрах. При видимости от 1 до 10 км при отсутствии осадков обычно наблюдается дымка, при ухудшении видимости до 1 км и менее - туман. В сухую погоду видимость может ухудшаться дымом, пылью или мглою.
  • Явления - указаны атмосферные явления, наблюдавшиеся в срок или в последний час перед сроком; фигурными скобками обозначены явления, наблюдавшиеся между сроками (за 1-3 часа до срока); квадратными скобками обозначены град или гололедные отложения с указанием их диаметра в мм.
  • Облачность - указаны через наклонную черту общая и нижняя облачность в баллах и высота нижней границы облаков в метрах; квадратными скобками обозначены формы облаков: Ci - перистые, Cs - перисто-слоистые, Cc - перисто-кучевые, Ac - высококучевые, As - высокослоистые, Sc - слоисто-кучевые, Ns - слоисто-дождевые, Cu - кучевые, Cb - кучево-дождевые. Подробнее классификацию облаков см. в Атласе облаков (PDF).
  • T - Температура воздуха - температура, измеренная на высоте 2 м над землей.
  • Td - Температура точки росы - температура, при понижении до которой содержащийся в воздухе водяной пар достигнет насыщения.
  • f - Относительная влажность воздуха - влажноcть воздуха, измеренная на высоте 2 м над землей.
  • Te - Эффективная температура - температура, которую ощущает одетый по сезону человек в тени. Характеристика душности погоды. При расчете учитывается влияние влажности воздуха и скорости ветра на теплоощущения человека.
  • Tes - Эффективная температура на солнце - температура, которую ощущает человек, с поправкой на солнечный нагрев. Характеристика знойности погоды. Зависит от высоты солнца над горизонтом, облачности и скорости ветра. Ночью, в пасмурную погоду, а также при ветре 12 м/с и более поправка равна нулю.
  • P - Атмосферное давление - приведенное к уровню моря атмосферное давление.
  • Po - Атмосферное давление - измеренное на уровне метеостанции атмосферное давление.
  • Tmin - Минимальная температура - минимум температуры воздуха на высоте 2 м над землей.
  • Tmax - Максимальная температура - максимум температуры воздуха на высоте 2 м над землей.
  • R - Количество осадков - Количество выпавших осадков за период времени, мм. При наведении курсора мыши на число - период времени, за который выпало указанное количество осадков.
  • R24 - Количество осадков - Количество выпавших осадков за 24 часа, мм.
  • S - Снежный покров - Высота снежного покрова, см. При наведении курсора мыши на число - состояние снежного покрова и степень покрытия местности в баллах.